Temp
21 21 21 21 21 21 21 21 22 22 23 23 24 23 23 22 23 24 24 24 24 23 24 24 24 24 24 24 23 23 23 23 25 26 23 24 24 24 23 24 23 22 23
21 21 21 21 21 22 21 21 22 22 22 23 24 24 24 23 23 23 24 23 23 23 23 23 23 23 22 24 23 23 24 23 23 24 24 24 23 23 24 24 23 23 23
21 21 21 21 21 22 22 22 21 22 22 22 23 22 24 24 24 24 24 24 23 24 23 23 24 23 22 23 23 23 24 23 22 23 24 24 23 23 23 23 23 22 22
21 22 22 22 22 22 22 21 22 22 22 22 22 22 23 23 24 24 23 23 24 23 23 23 23 23 22 22 23 22 22 23 23 23 24 24 23 23 22 24 24 22 23
21 21 21 21 22 21 22 21 21 21 22 22 22 22 22 22 23 23 23 22 22 23 23 22 23 22 23 23 23 23 22 22 24 24 24 24 24 24 23 24 24 24 24
21 21 20 21 21 21 21 21 21 21 21 21 21 22 22 23 24 24 24 23 23 23 23 23 22 22 23 23 23 23 23 22 23 24 25 25 24 23 24 23 24 24 25
21 21 20 20 20 20 21 20 21 21 21 21 21 21 22 22 23 24 24 23 23 23 23 23 23 24 23 22 22 23 23 23 22 23 23 23 24 23 22 22 23 23 24
21 21 21 20 20 21 20 21 21 21 21 21 21 21 22 22 24 24 24 23 22 23 23 23 23 23 23 22 22 22 22 23 23 22 22 22 22 22 21 22 21 21 22
21 21 21 21 21 20 20 21 21 21 20 21 21 21 21 22 24 24 23 22 22 22 22 22 22 23 22 22 21 21 22 22 23 23 22 23 22 22 21 20 20 19 20
21 21 21 21 21 21 21 21 21 21 21 21 21 21 21 23 24 24 24 23 22 22 22 21 22 21 21 21 20 21 22 22 22 21 21 21 21 21 20 19 19 19 19
20 20 21 21 21 21 21 21 21 21 21 21 21 22 21 23 23 24 23 23 22 21 21 22 21 20 21 21 20 20 21 22 21 21 21 19 19 18 17 18 18 18 17
19 19 20 20 21 22 21 21 21 21 21 21 20 21 21 21 22 22 23 22 22 20 20 20 19 20 20 20 20 20 20 20 20 20 20 19 18 17 16 16 16 15 15
18 19 19 20 20 20 21 21 21 21 22 22 21 21 22 20 22 22 21 21 21 20 20 20 20 20 18 18 18 19 18 19 20 20 20 18 16 15 15 14 15 14 14
18 19 19 19 20 20 20 20 21 21 21 23 22 21 22 19 20 20 20 20 20 19 18 19 19 18 18 18 17 17 17 18 19 19 18 16 15 15 15 14 15 13 16
18 19 19 20 19 20 20 20 20 21 22 23 23 21 21 19 19 21 20 19 19 18 17 17 17 17 17 16 17 17 16 17 17 16 16 16 16 15 15 14 13 13 14
19 20 20 20 20 20 19 18 19 19 20 21 22 22 21 21 21 21 20 19 19 19 17 16 16 16 16 16 18 17 17 16 16 16 16 16 16 16 15 14 14 16 17
18 19 19 19 20 19 17 16 16 16 19 19 20 21 21 22 21 20 19 19 18 18 19 17 19 18 17 18 18 18 17 16 15 16 16 16 16 16 15 16 16 16 16
17 18 19 19 19 19 17 17 17 15 16 16 19 20 20 20 20 20 19 18 16 16 19 20 19 19 19 18 18 18 17 15 16 16 16 16 16 16 16 16 16 17 17
17 18 18 18 18 17 17 17 17 17 18 18 15 16 18 18 18 18 18 19 18 17 18 20 20 19 19 18 18 17 17 17 16 16 16 16 16 16 17 17 16 16 16
18 18 18 18 17 17 17 17 17 17 19 18 17 16 14 15 14 15 15 16 19 20 19 20 19 19 19 18 17 17 17 16 16 16 16 16 16 16 17 17 17 17 17
18 19 17 18 17 16 16 16 16 16 18 18 20 17 17 17 18 17 15 16 17 19 19 19 19 19 19 18 18 17 17 17 17 17 17 16 16 16 16 17 17 17 17
17 19 18 18 18 17 16 15 15 17 19 19 20 16 17 18 19 19 18 18 18 18 19 19 19 19 19 19 18 18 18 18 17 17 16 16 16 16 16 17 17 17 17
17 19 18 18 18 17 18 16 16 16 19 20 20 17 14 17 19 19 19 19 18 18 18 18 19 19 19 19 19 18 19 18 17 16 15 16 16 17 17 17 17 17 17
17 18 18 18 16 16 17 16 16 16 18 20 20 20 19 19 19 19 19 19 19 18 18 18 18 19 19 19 18 18 19 19 18 17 16 16 17 17 17 17 18 18 18
16 16 17 18 16 16 16 16 16 17 17 20 20 20 20 20 20 19 19 19 19 18 18 18 18 18 18 18 19 19 18 18 18 17 16 16 16 16 16 18 18 18 18
17 16 16 16 16 17 16 16 16 18 19 20 20 20 20 20 20 20 20 19 19 19 19 19 19 18 19 19 18 18 18 19 18 18 16 16 16 15 16 17 18 18 18
Height
784 789 793 796 800 804 807 809 812 816 817 819 821 823 826 828 829 830 832 832 832 835 836 836 837 838 837 837 837 839 839 840 838 836 836 836 835 835 835 835 835 836 838
778 784 788 792 796 800 802 805 808 811 813 815 818 819 822 824 824 826 828 829 829 830 833 834 834 835 834 836 836 837 837 838 838 836 834 834 833 833 832 831 832 832 833
773 777 784 788 792 796 799 802 804 806 809 811 814 817 818 820 821 821 823 825 826 827 828 830 832 832 831 832 833 834 835 835 835 834 832 832 832 831 830 829 829 829 829
768 772 777 781 785 789 794 798 801 803 805 807 809 812 814 815 816 817 818 820 821 823 824 825 827 827 828 829 829 830 831 832 831 831 830 830 830 830 829 828 827 827 826
765 767 768 774 779 784 787 792 796 800 801 803 805 807 809 811 812 812 814 816 818 819 821 821 822 823 823 824 826 826 827 827 827 827 827 827 827 827 826 825 824 824 823
760 762 767 768 773 776 781 784 790 793 796 798 800 801 803 805 806 807 808 810 812 813 815 816 817 818 818 819 820 821 823 824 823 822 821 821 821 822 822 821 820 820 818
755 757 761 765 767 770 774 779 782 786 790 791 793 795 795 796 797 799 801 803 804 807 809 810 812 812 813 814 815 816 817 817 817 818 818 818 817 818 818 817 816 816 815
750 752 755 758 761 764 768 772 776 779 781 785 786 788 788 789 790 791 793 794 796 798 801 803 805 806 807 808 810 811 811 811 811 811 812 812 813 813 813 813 813 812 811
745 747 749 752 754 757 759 763 767 772 774 775 779 782 782 783 785 788 789 788 789 790 792 796 798 800 801 802 803 804 805 805 805 805 806 806 807 808 808 809 808 809 807
741 743 744 745 747 751 752 755 758 763 765 767 772 775 776 776 778 781 784 783 782 784 785 789 791 794 795 797 798 799 799 798 800 801 801 802 802 802 803 804 804 804 805
737 738 739 740 743 744 747 751 753 754 759 761 763 766 768 769 772 774 779 777 777 778 780 785 788 788 789 791 792 793 793 794 794 795 797 798 799 799 800 800 801 801 802
732 734 735 735 738 740 742 744 747 748 750 754 757 758 762 763 766 767 770 773 770 774 776 780 780 782 784 785 785 786 788 790 792 793 794 795 796 797 798 799 798 798 799
730 729 730 730 731 734 738 738 740 742 744 746 751 753 754 757 758 762 766 767 767 768 769 770 774 777 781 782 782 783 785 787 789 790 791 793 794 795 795 796 795 796 797
726 728 728 725 724 728 730 733 733 735 737 736 741 746 750 751 753 757 762 762 763 765 767 769 772 774 777 779 781 782 783 784 786 788 789 791 792 793 795 795 796 796 798
722 721 723 721 719 721 724 726 725 728 731 727 729 737 743 746 747 751 756 759 760 764 766 767 768 771 775 778 780 781 781 782 784 785 786 788 789 791 793 794 795 796 797
714 715 716 715 717 718 719 719 720 722 724 723 724 730 737 740 744 748 753 758 758 760 763 765 768 770 773 776 778 778 780 780 782 784 786 788 790 791 791 793 794 795 795
706 705 708 709 710 713 712 714 715 716 718 720 722 726 732 736 741 742 750 754 756 758 760 761 763 767 769 771 773 774 776 778 778 780 782 786 790 791 791 791 792 793 793
700 698 699 699 702 704 704 706 709 710 713 714 717 722 727 732 737 739 745 751 754 755 755 756 757 760 764 767 770 772 774 776 778 779 781 782 784 787 788 790 790 791 792
694 692 693 693 694 695 698 700 701 704 708 708 712 722 722 727 734 738 742 746 749 750 750 751 751 753 758 762 765 767 767 770 773 776 779 782 783 785 786 787 788 789 790
686 686 686 685 686 688 690 693 696 699 703 707 711 719 718 723 728 732 736 742 743 743 743 747 747 747 752 757 761 764 765 767 770 772 775 777 780 781 782 785 786 787 788
680 680 681 682 684 685 685 687 690 695 699 703 709 713 713 718 722 726 731 735 737 737 739 742 743 743 746 753 758 762 764 764 766 770 773 775 779 780 780 780 781 783 784
674 676 677 679 682 684 685 680 682 690 695 699 706 709 711 715 718 720 724 729 732 733 736 737 740 741 742 746 752 755 759 760 762 764 768 770 771 775 778 779 779 779 781
671 672 674 676 678 681 677 683 688 692 695 699 703 705 707 710 713 715 719 722 725 728 731 732 736 738 739 742 748 750 752 754 756 758 762 765 766 769 771 772 774 775 776
668 669 671 674 677 679 680 685 690 694 697 698 699 702 703 705 707 711 714 717 719 723 726 726 729 733 734 739 743 744 745 748 750 752 754 759 762 764 766 767 768 769 771
666 668 671 672 676 676 681 686 686 690 691 691 693 695 697 700 704 707 709 710 713 716 718 720 722 726 728 734 739 740 740 742 744 746 747 749 753 756 758 760 761 763 766
666 666 668 670 672 676 680 683 684 684 685 685 687 689 692 697 699 701 703 704 707 709 711 713 715 719 722 726 731 733 734 735 737 740 742 744 744 746 749 753 755 756 758
Wind_Speed
27 25 24 24 23 22 19 18 18 16 14 13 12 13 13 12 14 14 15 12 11 9 9 8 8 7 6 4 6 5 5 5 7 6 4 5 6 4 6 8 5 9 10
26 25 25 23 22 24 24 21 20 20 16 14 13 13 14 13 14 15 14 12 11 11 9 8 7 6 7 7 7 9 8 7 7 8 5 4 4 5 6 8 8 7 9
23 24 24 24 24 25 24 22 20 22 19 15 16 15 16 15 14 15 15 13 12 13 11 10 10 9 7 7 6 8 8 8 9 9 10 6 6 5 6 7 8 9 10
24 24 25 26 25 25 24 22 22 22 21 20 18 17 16 13 14 16 16 15 14 12 12 12 11 11 11 9 9 10 9 10 10 11 11 12 10 8 8 9 9 8 9
24 25 27 26 24 22 23 23 22 22 23 22 20 19 19 16 16 17 16 15 14 14 13 14 14 14 16 14 12 12 11 12 12 11 11 11 11 10 10 8 9 9 11
23 26 22 25 23 23 23 24 23 23 23 23 24 23 21 21 22 22 17 15 16 16 16 16 15 17 18 18 19 19 18 15 15 15 14 14 14 13 12 11 11 10 11
23 24 23 21 24 23 23 21 24 25 23 24 25 24 23 23 25 24 23 20 19 17 17 17 16 16 16 16 18 20 21 21 22 19 17 16 15 13 10 11 12 13 13
21 22 22 22 25 24 21 23 22 21 22 22 23 25 24 23 25 22 21 21 20 21 21 19 17 17 16 17 15 15 17 19 23 23 22 18 14 13 12 11 11 12 13
20 22 23 24 23 24 24 25 24 20 21 24 21 22 23 25 25 21 19 17 17 19 19 19 20 21 18 20 17 17 18 18 17 22 22 20 18 18 16 12 10 8 8
16 19 21 22 24 24 26 25 26 24 25 22 21 22 26 31 28 25 21 17 16 15 15 16 20 17 17 18 18 16 17 18 14 11 14 16 15 15 15 12 11 10 9
6 14 17 19 22 25 25 22 21 26 22 21 24 22 26 34 27 25 21 19 16 14 11 12 12 15 17 19 19 18 19 14 10 9 10 9 8 10 9 8 8 8 8
9 9 11 17 19 19 22 22 23 22 22 22 21 20 23 27 28 23 21 19 14 11 9 9 9 12 13 13 13 13 16 16 10 8 8 7 6 4 4 6 9 8 7
12 10 11 10 12 18 21 22 22 23 23 21 19 20 20 23 24 22 18 15 14 12 10 8 7 8 6 5 5 5 5 5 6 7 5 4 2 2 2 2 3 3 2
14 13 11 10 12 14 21 23 21 21 24 23 21 20 19 18 23 20 18 17 15 13 11 10 8 8 9 7 4 5 5 5 5 5 5 5 3 2 2 3 3 1 1
14 15 15 11 10 13 17 19 22 26 27 25 25 24 21 18 22 25 24 21 18 13 13 11 11 11 10 8 6 5 4 3 5 6 7 7 7 6 4 4 3 4 4
15 16 15 12 12 15 18 23 27 26 30 29 27 24 20 20 25 23 22 20 18 18 13 11 11 11 11 10 9 7 6 7 7 8 8 7 6 6 6 5 6 5 6
17 19 17 16 18 20 22 21 18 18 28 26 26 27 23 23 19 18 23 20 18 18 13 13 13 14 13 12 11 10 10 10 11 11 10 8 7 6 7 7 7 5 6
21 24 20 20 20 20 20 22 22 22 19 21 25 27 26 21 20 22 24 22 20 21 16 14 15 14 13 12 11 12 11 11 11 11 10 11 10 9 8 8 7 7 6
21 20 19 21 20 18 19 20 21 21 20 21 22 22 24 22 22 23 25 21 20 19 18 17 16 16 15 14 14 14 14 14 14 12 10 10 9 9 9 10 9 8 7
18 18 16 14 15 15 17 19 20 19 17 19 21 20 24 25 21 23 25 20 19 19 18 19 17 17 16 16 15 15 14 15 14 13 13 11 11 11 11 11 10 9 8
15 16 14 10 9 14 17 18 19 20 19 19 19 21 29 23 20 20 20 20 20 18 18 19 18 18 18 16 16 15 15 15 15 14 13 12 12 13 14 14 12 11 7
14 16 15 15 14 13 15 15 14 14 13 16 15 15 23 16 15 15 15 16 16 15 15 17 18 18 18 19 19 19 18 17 17 17 17 15 15 15 15 15 14 12 10
13 13 13 13 16 14 9 5 12 12 12 15 16 16 22 17 15 13 14 14 14 14 15 16 17 17 16 17 19 20 21 20 20 22 19 17 17 16 17 17 16 15 14
12 11 11 13 13 11 14 10 17 17 17 16 16 15 15 15 14 13 13 13 13 15 16 16 18 18 16 17 18 19 19 19 18 20 22 19 19 17 16 17 17 18 16
8 14 11 9 13 12 11 15 18 20 21 17 16 14 13 14 14 14 14 13 14 15 17 18 17 18 19 20 21 21 20 21 19 20 20 22 22 21 19 18 18 18 18
5 8 10 10 11 11 11 13 16 14 15 12 11 11 11 13 14 15 16 16 15 15 16 16 18 20 19 22 24 24 24 23 22 22 21 21 22 24 23 22 21 20 19
Wind_Direction
203 207 209 216 216 216 218 219 219 222 225 221 219 211 223 237 239 247 239 249 244 245 261 270 271 259 269 278 267 262 239 244 278 292 300 314 321 294 261 269 283 245 258
202 206 209 212 216 220 222 220 220 223 226 221 216 213 221 234 242 238 237 237 241 251 252 248 263 265 261 254 241 254 259 251 257 274 288 281 284 287 282 274 266 259 262
201 204 212 212 215 221 225 222 222 221 225 218 224 223 220 228 240 243 236 241 237 239 243 241 243 247 241 244 251 254 252 243 242 251 268 266 272 271 274 276 272 263 265
205 203 210 213 214 214 221 224 226 224 223 221 222 228 231 228 237 242 242 240 246 243 240 243 248 247 248 247 245 246 245 248 246 251 261 269 271 272 269 267 264 259 264
213 207 207 212 214 214 213 218 227 232 231 232 230 230 238 243 240 234 236 234 239 246 247 249 251 250 253 251 250 247 238 243 247 248 256 262 264 262 263 271 270 280 276
218 220 215 206 210 215 217 219 223 232 236 236 239 238 239 244 242 236 237 235 239 245 250 254 256 259 258 256 255 252 251 246 243 249 254 251 257 258 264 259 266 270 286
219 219 215 211 210 216 219 217 221 228 234 237 239 239 240 236 234 235 236 239 249 253 253 251 254 256 259 255 258 258 254 251 246 245 252 259 268 264 268 260 260 263 269
225 221 219 215 216 217 214 219 222 223 228 236 239 236 236 234 234 227 225 230 235 239 247 251 257 262 257 255 259 262 257 258 255 247 245 253 253 261 262 267 269 270 270
231 227 221 219 221 217 215 221 223 221 223 229 237 237 233 236 227 228 228 224 228 231 233 244 244 252 258 266 266 264 265 264 253 245 245 247 258 265 261 257 253 258 271
244 238 232 222 222 223 224 220 223 225 228 229 230 234 235 235 229 237 243 236 229 227 225 231 245 243 252 257 255 256 259 261 257 243 244 247 255 256 253 246 245 252 264
274 251 245 234 232 229 228 225 220 225 230 224 230 233 235 232 239 234 237 246 235 231 221 227 233 247 256 260 257 249 251 257 253 244 232 231 224 226 254 255 256 257 263
267 259 253 245 240 240 232 227 225 224 224 225 228 228 231 230 233 230 245 244 222 212 208 223 251 267 270 269 260 256 245 243 242 237 223 212 201 213 262 281 278 270 266
281 273 253 244 245 240 240 235 225 222 218 220 220 221 222 223 230 239 227 224 230 225 226 231 239 266 258 253 244 220 210 211 220 223 218 185 198 234 284 317 323 315 287
278 272 265 246 242 241 234 229 223 222 220 209 206 209 209 212 212 216 222 216 216 217 215 212 219 222 212 221 184 175 178 188 200 204 184 161 148 113 89 65 56 59 147
259 261 261 260 261 257 239 232 223 228 224 206 200 200 196 198 207 214 216 212 205 202 195 194 181 183 186 195 195 198 189 175 171 162 154 149 140 134 113 100 100 85 98
265 256 253 253 250 250 242 237 227 225 220 210 202 195 202 207 212 216 217 215 203 202 182 179 188 193 195 197 202 191 181 165 157 150 146 146 145 145 137 124 122 118 99
259 266 263 257 255 238 217 217 213 213 211 204 201 206 212 212 210 202 200 202 200 191 201 196 200 200 199 200 195 186 178 169 162 158 154 155 158 154 146 142 136 123 99
258 255 250 255 249 237 218 212 208 194 189 183 189 194 200 205 201 193 196 195 186 199 210 203 198 196 197 194 187 180 174 173 172 170 168 168 172 171 162 156 147 134 128
244 239 236 237 233 220 213 215 204 195 193 169 173 190 189 192 196 193 196 196 203 207 207 205 197 191 191 190 191 187 181 182 180 179 180 183 181 181 179 171 160 153 151
231 228 219 217 220 220 210 209 192 188 182 179 175 184 173 172 174 185 196 208 217 216 208 211 200 189 189 190 190 189 186 184 186 188 191 191 196 189 188 188 187 186 194
224 213 206 205 215 213 196 196 190 178 177 177 187 190 187 182 188 194 202 214 219 217 214 211 202 191 186 188 192 198 197 190 192 197 195 197 206 208 205 201 200 203 207
215 217 211 221 220 204 185 188 163 165 179 171 182 190 194 184 191 194 202 213 217 214 214 204 204 196 190 194 200 202 208 205 200 196 200 199 202 210 214 215 212 213 218
210 212 212 215 206 201 129 172 196 210 191 188 184 176 183 190 194 195 202 207 210 209 208 201 205 205 206 209 216 214 215 216 216 215 208 208 206 210 213 216 217 220 224
209 209 203 203 181 175 161 191 211 212 211 199 192 190 189 195 198 202 203 206 208 214 214 209 211 214 213 218 220 220 219 222 221 220 217 213 218 215 219 220 222 225 231
194 201 205 193 180 180 180 196 209 210 215 201 197 196 196 202 210 211 210 209 212 214 215 217 219 226 225 229 234 234 229 229 225 221 218 216 217 216 215 221 223 225 232
175 179 188 192 191 194 208 209 209 207 202 188 191 190 196 209 217 218 217 212 214 219 220 220 222 226 230 231 231 231 232 238 238 236 222 221 217 213 212 221 226 228 235